Burlington, WA
on Monday, November 5, 2012

Monday
Previous Day Next Day
Daily Summary
 ActualAverage (KBLI)Record (KBLI)
Temperature
Mean Temperature °F 46°F  
Max Temperature 57°F 52°F 65°F (1980)
Min Temperature 44°F 39°F 20°F (2003)
Degree Days
Heating Degree Days 14 19  
Month to date heating degree days 95  
Cooling Degree Days 0 0  
Month to date cooling degree days 0  
Year to date cooling degree days 42  
Moisture
Dew Point 49°F   
Average Humidity 92    
Maximum Humidity 100    
Minimum Humidity 67    
Precipitation
Precipitation 0.00 in 0.20 in 0.73 in (1988)
Month to date precipitation 0.94  
Year to date precipitation 26.75  
Wind
Wind Speed 2 mph   
Max Wind Speed 10 mph   
Max Gust Speed mph   
Visibility 7 miles   
Events     

Key: T is trace of precipitation, MM is missing value
Source: NWS Daily Summary
Time(PST)TemperatureDew PointHumidity Pressure Visibility Wind DirectionWind SpeedGust SpeedPrecipitationEvents Conditions
12:15 AM 55.4°F 55.4°F 100% 30.31 in 8.0 miles Calm Calm - 0.00 in   Overcast
12:35 AM 53.6°F 53.6°F 100% 30.31 in 8.0 miles Calm Calm - 0.00 in   Overcast
12:55 AM 53.6°F 53.6°F 100% 30.32 in 7.0 miles Calm Calm - 0.00 in   Overcast
1:15 AM 53.6°F 53.6°F 100% 30.33 in 7.0 miles Calm Calm - 0.00 in   Overcast
1:55 AM 53.6°F 53.6°F 100% 30.34 in 7.0 miles Calm Calm - 0.00 in   Overcast
2:35 AM 53.6°F 53.6°F 100% 30.35 in 7.0 miles South 3.5 mph - 0.00 in   Overcast
2:55 AM 53.6°F 53.6°F 100% 30.36 in 7.0 miles Calm Calm - 0.00 in   Mostly Cloudy
3:15 AM 51.8°F 51.8°F 100% 30.36 in 6.0 miles SSW 4.6 mph - 0.00 in   Partly Cloudy
3:35 AM 51.8°F 51.8°F 100% 30.36 in 7.0 miles SSW 5.8 mph - 0.00 in   Clear
3:55 AM 51.8°F 51.8°F 100% 30.36 in 7.0 miles SSW 4.6 mph - 0.00 in   Clear
4:15 AM 51.8°F 51.8°F 100% 30.37 in 7.0 miles Calm Calm - 0.00 in   Clear
4:55 AM 51.8°F 51.8°F 100% 30.38 in 6.0 miles Calm Calm - 0.00 in   Clear
5:15 AM 50.0°F 50.0°F 100% 30.38 in 5.0 miles Calm Calm - 0.00 in   Clear
5:35 AM 48.2°F 48.2°F 100% 30.38 in 4.0 miles Calm Calm - 0.00 in   Clear
5:55 AM 48.2°F 48.2°F 100% 30.37 in 5.0 miles Calm Calm - 0.00 in   Clear
6:15 AM 46.4°F 46.4°F 100% 30.38 in 2.5 miles Calm Calm - 0.00 in   Clear
6:35 AM 46.4°F 46.4°F 100% 30.38 in 2.5 miles Calm Calm - 0.00 in   Clear
6:55 AM 44.6°F 44.6°F 100% 30.38 in 0.8 miles Calm Calm - 0.00 in   Unknown
7:15 AM 46.4°F 46.4°F 100% 30.38 in 2.5 miles West 4.6 mph - 0.00 in   Clear
7:55 AM 46.4°F 46.4°F 100% 30.38 in 5.0 miles West 4.6 mph - 0.00 in   Clear
8:15 AM 46.4°F 46.4°F 100% 30.39 in 4.0 miles Calm Calm - 0.00 in   Clear
8:35 AM 48.2°F 48.2°F 100% 30.39 in 5.0 miles East 4.6 mph - 0.00 in   Clear
8:55 AM 48.2°F 48.2°F 100% 30.39 in 4.0 miles Calm Calm - 0.00 in   Clear
9:15 AM 50.0°F 50.0°F 100% 30.39 in 4.0 miles Calm Calm - 0.00 in   Clear
9:35 AM 51.8°F 51.8°F 100% 30.39 in 4.0 miles ESE 3.5 mph - 0.00 in   Clear
9:55 AM 51.8°F 51.8°F 100% 30.40 in 5.0 miles SE 3.5 mph - 0.00 in   Clear
10:15 AM 53.6°F 51.8°F 94% 30.39 in 5.0 miles SE 3.5 mph - 0.00 in   Clear
10:35 AM 53.6°F 51.8°F 94% 30.40 in 5.0 miles Calm Calm - 0.00 in   Clear
10:55 AM 53.6°F 48.2°F 82% 30.40 in 5.0 miles Calm Calm - 0.00 in   Clear
11:15 AM 55.4°F 50.0°F 82% 30.40 in 5.0 miles Calm Calm - 0.00 in   Clear
11:35 AM 55.4°F 50.0°F 82% 30.40 in 5.0 miles SSE 3.5 mph - 0.00 in   Clear
11:55 AM 55.4°F 50.0°F 82% 30.40 in 5.0 miles SSW 5.8 mph - 0.00 in   Clear
12:35 PM 55.4°F 48.2°F 77% 30.40 in 6.0 miles SSW 5.8 mph - 0.00 in   Clear
12:55 PM 55.4°F 48.2°F 77% 30.39 in 6.0 miles Calm Calm - 0.00 in   Clear
1:15 PM 57.2°F 48.2°F 72% 30.39 in 5.0 miles Calm Calm - 0.00 in   Clear
1:35 PM 55.4°F 50.0°F 82% 30.38 in 7.0 miles South 5.8 mph - 0.00 in   Clear
1:55 PM 57.2°F 48.2°F 72% 30.39 in 7.0 miles SSW 4.6 mph - 0.00 in   Clear
2:15 PM 57.2°F 46.4°F 67% 30.37 in 7.0 miles South 3.5 mph - 0.00 in   Clear
2:35 PM 55.4°F 46.4°F 72% 30.36 in 2.5 miles Calm Calm - 0.00 in   Clear
2:55 PM 55.4°F 46.4°F 72% 30.36 in 7.0 miles Calm Calm - 0.00 in   Clear
3:15 PM 55.4°F 46.4°F 72% 30.35 in 7.0 miles Calm Calm - 0.00 in   Clear
3:35 PM 53.6°F 48.2°F 82% 30.36 in 7.0 miles Calm Calm - 0.00 in   Clear
3:55 PM 53.6°F 51.8°F 94% 30.36 in 6.0 miles Calm Calm - 0.00 in   Clear
4:15 PM 53.6°F 46.4°F 77% 30.35 in 7.0 miles NW 5.8 mph - 0.00 in   Clear
4:35 PM 51.8°F 48.2°F 88% 30.34 in 7.0 miles NW 4.6 mph - 0.00 in   Clear
4:55 PM 50.0°F 48.2°F 94% 30.34 in 7.0 miles NW 6.9 mph - 0.00 in   Clear
5:15 PM 50.0°F 48.2°F 94% 30.32 in 9.0 miles NNW 8.1 mph - 0.00 in   Clear
5:55 PM 50.0°F 46.4°F 87% 30.31 in 10.0 miles NNW 9.2 mph - 0.00 in   Clear
6:15 PM 50.0°F 46.4°F 87% 30.32 in 10.0 miles NW 10.4 mph - 0.00 in   Clear
6:35 PM 50.0°F 46.4°F 87% 30.30 in 10.0 miles NW 9.2 mph - 0.00 in   Clear
6:55 PM 50.0°F 46.4°F 87% 30.30 in 10.0 miles NW 8.1 mph - 0.00 in   Clear
7:15 PM 50.0°F 46.4°F 87% 30.28 in 10.0 miles North 6.9 mph - 0.00 in   Clear
7:35 PM 48.2°F 46.4°F 93% 30.28 in 10.0 miles NNW 6.9 mph - 0.00 in   Mostly Cloudy
7:55 PM 50.0°F 46.4°F 87% 30.27 in 10.0 miles NNW 6.9 mph - 0.00 in   Overcast
8:15 PM 48.2°F 48.2°F 100% 30.25 in 9.0 miles NW 5.8 mph - 0.00 in   Mostly Cloudy
8:35 PM 48.2°F 46.4°F 93% 30.24 in 10.0 miles NW 4.6 mph - 0.00 in   Clear
8:55 PM 48.2°F 48.2°F 100% 30.23 in 9.0 miles NNE 5.8 mph - 0.00 in   Clear
9:15 PM 50.0°F 48.2°F 94% 30.23 in 10.0 miles NNE 6.9 mph - 0.00 in   Scattered Clouds
9:35 PM 50.0°F 48.2°F 94% 30.23 in 10.0 miles NE 5.8 mph - 0.00 in   Mostly Cloudy
9:55 PM 50.0°F 48.2°F 94% 30.22 in 10.0 miles NE 6.9 mph - 0.00 in   Partly Cloudy
10:15 PM 48.2°F 48.2°F 100% 30.22 in 10.0 miles NE 5.8 mph - 0.00 in   Clear
10:35 PM 48.2°F 48.2°F 100% 30.22 in 10.0 miles NNE 6.9 mph - 0.00 in   Clear
10:55 PM 48.2°F 48.2°F 100% 30.20 in 10.0 miles NE 4.6 mph - 0.00 in   Clear
11:15 PM 50.0°F 48.2°F 94% 30.19 in 10.0 miles NE 6.9 mph - 0.00 in   Clear
11:35 PM 48.2°F 48.2°F 100% 30.19 in 9.0 miles NE 3.5 mph - 0.00 in   Clear
11:55 PM 48.2°F 48.2°F 100% 30.19 in 10.0 miles NNW 3.5 mph - 0.00 in   Clear
Moon Phase
Nov. 05 Nov. 06 Nov. 13 Nov. 20 Nov. 28
Sunrise:07:02 AM (PST) Moon Rise:10:27 PM (PST)11/5
Sunset:04:42 PM (PST) Moon Set:12:26 PM (PST)11/5

Copyright © 2014 The Weather Underground, Inc.